Location: Igon
(43.1667°N, 0.2333°W)
Time: 21:50:44
(UTC+00:00)

SJ 16-02 - Pass Details

Date: 29 November 2020
Orbit: 606 x 616 km, 75.0° (Epoch: 19 January)

Event Time Altitude Azimuth Distance (km) Brightness Sun altitude
Exits shadow 06:23:13 10° 305° (NW) 1,956 3.3 -8.7°
Maximum altitude 06:23:22 10° 307° (NW) 1,956 3.3 -8.7°
Drops below altitude 10° 06:24:09 10° 318° (NW) 1,983 3.4 -8.6°
Sets 06:28:35 0° 359° (N) 2,897 4.6 -7.8°
